| time (UTC) | temp F | wind direction | speed MPH | gust MPH | rain 1hr in | rain 24hr in | rain mn in | humidity % | barometer mb |
| 20260505224104 | 37 | 56 | 1.0 | 6.0 | 0.05 | 0.39 | 0.29 | 93 | 1011.9 |
| 20260505223603 | 37 | 319 | 2.0 | 8.0 | 0.05 | 0.39 | 0.29 | 93 | 1011.8 |
| 20260505222603 | 37 | 333 | 3.0 | 12.0 | 0.05 | 0.39 | 0.29 | 93 | 1011.7 |
| 20260505222104 | 38 | 333 | 2.0 | 9.0 | 0.04 | 0.38 | 0.28 | 92 | 1011.7 |
| 20260505221604 | 39 | 23 | 1.0 | 6.0 | 0.04 | 0.38 | 0.28 | 93 | 1011.7 |
| 20260505221103 | 39 | 316 | 4.0 | 8.0 | 0.04 | 0.38 | 0.28 | 93 | 1011.5 |
| 20260505220603 | 39 | 67 | 1.0 | 3.0 | 0.03 | 0.37 | 0.27 | 93 | 1011.3 |
| 20260505215603 | 40 | 55 | 1.0 | 6.0 | 0.02 | 0.36 | 0.26 | 93 | 1011.0 |
| 20260505215103 | 40 | 66 | 1.0 | 3.0 | 0.01 | 0.35 | 0.25 | 94 | 1011.5 |
| 20260505214603 | 40 | 28 | 0.0 | 1.0 | 0.00 | 0.34 | 0.24 | 93 | 1011.5 |
| 20260505214103 | 40 | 28 | 0.0 | 2.0 | 0.00 | 0.34 | 0.24 | 93 | 1011.4 |
| 20260505213604 | 40 | 88 | 1.0 | 6.0 | 0.00 | 0.34 | 0.24 | 93 | 1011.6 |
| 20260505213104 | 40 | 62 | 0.0 | 2.0 | 0.00 | 0.34 | 0.24 | 93 | 1011.5 |
| 20260505212603 | 40 | 64 | 1.0 | 6.0 | 0.00 | 0.34 | 0.24 | 93 | 1011.4 |
| 20260505212103 | 40 | 58 | 0.0 | 2.0 | 0.00 | 0.34 | 0.24 | 94 | 1011.4 |
| 20260505211604 | 40 | 59 | 0.0 | 3.0 | 0.00 | 0.34 | 0.24 | 94 | 1011.3 |
| 20260505210604 | 40 | 74 | 1.0 | 2.0 | 0.00 | 0.34 | 0.24 | 94 | 1011.2 |
| 20260505210104 | 40 | 74 | 0.0 | 1.0 | 0.00 | 0.34 | 0.24 | 94 | 1011.3 |
| 20260505205603 | 40 | 74 | 1.0 | 3.0 | 0.00 | 0.34 | 0.24 | 94 | 1011.3 |
| 20260505205103 | 40 | 76 | 0.0 | 3.0 | 0.00 | 0.34 | 0.24 | 94 | 1012.1 |
| 20260505204604 | 40 | 336 | 0.0 | 6.0 | 0.00 | 0.34 | 0.24 | 94 | 1012.3 |
| 20260505204103 | 40 | 30 | 0.0 | 6.0 | 0.00 | 0.34 | 0.24 | 94 | 1012.4 |
| 20260505203603 | 40 | 40 | 0.0 | 3.0 | 0.00 | 0.34 | 0.24 | 94 | 1012.4 |
| 20260505203103 | 40 | 40 | 1.0 | 3.0 | 0.00 | 0.34 | 0.24 | 94 | 1012.5 |
| 20260505202604 | 40 | 41 | 1.0 | 3.0 | 0.00 | 0.34 | 0.24 | 94 | 1012.4 |
| 20260505202103 | 40 | 357 | 1.0 | 3.0 | 0.00 | 0.34 | 0.24 | 94 | 1012.5 |
| 20260505201603 | 40 | 88 | 0.0 | 2.0 | 0.00 | 0.34 | 0.24 | 95 | 1012.4 |
| 20260505195603 | 40 | 89 | 1.0 | 2.0 | 0.00 | 0.34 | 0.24 | 95 | 1012.2 |
| 20260505195104 | 40 | 89 | 1.0 | 2.0 | 0.00 | 0.34 | 0.24 | 95 | 1012.7 |
| 20260505194604 | 40 | 89 | 0.0 | 2.0 | 0.00 | 0.34 | 0.24 | 95 | 1012.8 |
| 20260505194104 | 40 | 89 | 0.0 | 2.0 | 0.01 | 0.34 | 0.24 | 96 | 1012.6 |
| 20260505193603 | 40 | 89 | 0.0 | 2.0 | 0.01 | 0.34 | 0.24 | 96 | 1012.6 |
| 20260505192603 | 39 | 89 | 0.0 | 2.0 | 0.01 | 0.34 | 0.24 | 95 | 1012.6 |
| 20260505192103 | 39 | 89 | 1.0 | 3.0 | 0.02 | 0.34 | 0.24 | 95 | 1012.6 |
| 20260505191603 | 39 | 89 | 0.0 | 2.0 | 0.02 | 0.34 | 0.24 | 95 | 1012.6 |
| 20260505191103 | 39 | 89 | 1.0 | 3.0 | 0.02 | 0.34 | 0.24 | 95 | 1012.7 |
| 20260505190103 | 39 | 98 | 0.0 | 2.0 | 0.02 | 0.34 | 0.24 | 95 | 1012.8 |
| 20260505185603 | 39 | 119 | 0.0 | 2.0 | 0.02 | 0.34 | 0.24 | 95 | 1012.9 |
| 20260505184603 | 39 | 121 | 0.0 | 1.0 | 0.02 | 0.34 | 0.24 | 95 | 1013.2 |
| 20260505184103 | 40 | 121 | 0.0 | 3.0 | 0.01 | 0.33 | 0.23 | 95 | 1013.4 |
| 20260505183604 | 40 | 76 | 0.0 | 0.0 | 0.01 | 0.33 | 0.23 | 96 | 1013.4 |
| 20260505183103 | 40 | 76 | 0.0 | 0.0 | 0.01 | 0.33 | 0.23 | 96 | 1013.4 |
| 20260505182603 | 40 | 76 | 0.0 | 0.0 | 0.01 | 0.33 | 0.23 | 96 | 1013.4 |
| 20260505182103 | 40 | 76 | 0.0 | 0.0 | 0.00 | 0.32 | 0.22 | 96 | 1013.3 |
| 20260505181603 | 39 | 76 | 0.0 | 1.0 | 0.00 | 0.32 | 0.22 | 96 | 1013.3 |
| 20260505180103 | 39 | 74 | 0.0 | 0.0 | 0.01 | 0.32 | 0.22 | 96 | 1013.6 |
| 20260505175603 | 39 | 74 | 0.0 | 2.0 | 0.01 | 0.32 | 0.22 | 96 | 1013.6 |
| 20260505175103 | 39 | 74 | 0.0 | 1.0 | 0.01 | 0.32 | 0.22 | 96 | 1013.9 |
| 20260505174603 | 39 | 74 | 1.0 | 3.0 | 0.01 | 0.32 | 0.22 | 96 | 1013.9 |
| 20260505174103 | 39 | 77 | 0.0 | 0.0 | 0.01 | 0.32 | 0.22 | 96 | 1014.0 |
| 20260505173603 | 39 | 77 | 1.0 | 3.0 | 0.01 | 0.32 | 0.22 | 96 | 1013.9 |
| 20260505172604 | 39 | 63 | 0.0 | 1.0 | 0.01 | 0.32 | 0.22 | 96 | 1013.9 |
| 20260505172103 | 39 | 63 | 1.0 | 2.0 | 0.01 | 0.32 | 0.22 | 96 | 1014.0 |
| 20260505171603 | 39 | 63 | 0.0 | 3.0 | 0.01 | 0.32 | 0.22 | 96 | 1013.9 |
| 20260505171103 | 39 | 63 | 0.0 | 2.0 | 0.02 | 0.32 | 0.22 | 96 | 1014.0 |
| 20260505170604 | 39 | 63 | 0.0 | 3.0 | 0.02 | 0.32 | 0.22 | 96 | 1013.9 |
| 20260505170104 | 38 | 63 | 0.0 | 0.0 | 0.01 | 0.31 | 0.21 | 96 | 1013.8 |
| 20260505165603 | 38 | 63 | 0.0 | 2.0 | 0.01 | 0.31 | 0.21 | 95 | 1013.8 |
| 20260505165104 | 38 | 63 | 0.0 | 2.0 | 0.01 | 0.31 | 0.21 | 96 | 1014.4 |
| 20260505164604 | 38 | 63 | 0.0 | 2.0 | 0.01 | 0.31 | 0.21 | 96 | 1014.4 |
| 20260505164103 | 38 | 65 | 0.0 | 3.0 | 0.01 | 0.31 | 0.21 | 95 | 1014.2 |
| 20260505163603 | 38 | 64 | 1.0 | 3.0 | 0.01 | 0.31 | 0.21 | 96 | 1014.5 |
| 20260505162603 | 38 | 65 | 0.0 | 1.0 | 0.01 | 0.31 | 0.21 | 96 | 1014.3 |
| 20260505162103 | 38 | 65 | 0.0 | 0.0 | 0.01 | 0.31 | 0.21 | 96 | 1014.4 |
| 20260505161603 | 38 | 65 | 0.0 | 1.0 | 0.02 | 0.31 | 0.21 | 96 | 1014.3 |
| 20260505153103 | 37 | 324 | 0.0 | 2.0 | 0.02 | 0.30 | 0.20 | 96 | 1014.9 |
| 20260505152604 | 37 | 324 | 0.0 | 3.0 | 0.02 | 0.30 | 0.20 | 95 | 1015.0 |
| 20260505152103 | 37 | 324 | 1.0 | 3.0 | 0.02 | 0.30 | 0.20 | 95 | 1015.0 |
| 20260505151103 | 37 | 324 | 2.0 | 3.0 | 0.01 | 0.29 | 0.19 | 95 | 1014.9 |
| 20260505150603 | 37 | 324 | 0.0 | 3.0 | 0.01 | 0.29 | 0.19 | 95 | 1014.9 |
| 20260505140604 | 36 | 24 | 0.0 | 2.0 | 0.03 | 0.28 | 0.18 | 95 | 1015.0 |
| 20260505124603 | 37 | 342 | 2.0 | 8.0 | 0.03 | 0.24 | 0.14 | 94 | 1013.8 |
| 20260505124103 | 37 | 5 | 2.0 | 6.0 | 0.04 | 0.24 | 0.14 | 94 | 1013.7 |
| 20260505123604 | 37 | 25 | 2.0 | 5.0 | 0.06 | 0.24 | 0.14 | 94 | 1013.5 |
| 20260505123104 | 38 | 339 | 1.0 | 3.0 | 0.07 | 0.23 | 0.13 | 94 | 1013.6 |
| 20260505122604 | 38 | 334 | 4.0 | 10.0 | 0.07 | 0.23 | 0.13 | 94 | 1013.6 |
| 20260505122104 | 38 | 337 | 2.0 | 8.0 | 0.08 | 0.23 | 0.13 | 94 | 1013.5 |
| 20260505121603 | 38 | 33 | 3.0 | 9.0 | 0.08 | 0.23 | 0.13 | 94 | 1013.4 |
| 20260505121104 | 39 | 341 | 2.0 | 8.0 | 0.09 | 0.23 | 0.13 | 94 | 1013.4 |
| 20260505120604 | 39 | 349 | 1.0 | 5.0 | 0.08 | 0.22 | 0.12 | 94 | 1013.3 |
| 20260505120103 | 38 | 350 | 1.0 | 5.0 | 0.08 | 0.22 | 0.12 | 94 | 1013.4 |
| 20260505115603 | 38 | 61 | 1.0 | 3.0 | 0.08 | 0.22 | 0.12 | 94 | 1013.2 |
| 20260505115103 | 39 | 6 | 2.0 | 6.0 | 0.08 | 0.22 | 0.12 | 94 | 1013.2 |
| 20260505114103 | 39 | 31 | 2.0 | 10.0 | 0.06 | 0.20 | 0.10 | 94 | 1013.0 |
| 20260505113603 | 39 | 5 | 1.0 | 6.0 | 0.04 | 0.18 | 0.08 | 94 | 1013.0 |
| 20260505113103 | 40 | 336 | 1.0 | 8.0 | 0.02 | 0.16 | 0.06 | 94 | 1012.8 |
| 20260505112603 | 40 | 329 | 2.0 | 8.0 | 0.03 | 0.16 | 0.06 | 94 | 1012.6 |
| 20260505111604 | 40 | 331 | 3.0 | 10.0 | 0.03 | 0.15 | 0.05 | 94 | 1012.6 |
| 20260505111104 | 40 | 349 | 3.0 | 12.0 | 0.02 | 0.14 | 0.04 | 94 | 1012.4 |
| 20260505110603 | 41 | 336 | 3.0 | 8.0 | 0.02 | 0.14 | 0.04 | 94 | 1012.4 |
| 20260505102103 | 42 | 350 | 4.0 | 9.0 | 0.03 | 0.13 | 0.03 | 94 | 1011.4 |
| 20260505101603 | 43 | 333 | 5.0 | 12.0 | 0.02 | 0.12 | 0.02 | 94 | 1011.3 |
| 20260505101103 | 44 | 340 | 4.0 | 9.0 | 0.02 | 0.12 | 0.02 | 94 | 1011.0 |
| 20260505100603 | 44 | 339 | 1.0 | 5.0 | 0.02 | 0.12 | 0.02 | 94 | 1011.0 |
| 20260505100104 | 44 | 342 | 2.0 | 3.0 | 0.01 | 0.11 | 0.01 | 94 | 1010.8 |
| 20260505095103 | 44 | 343 | 1.0 | 3.0 | 0.00 | 0.10 | 0.00 | 94 | 1011.1 |
| 20260505094603 | 44 | 343 | 1.0 | 3.0 | 0.00 | 0.10 | 0.00 | 94 | 1011.1 |
| 20260505094103 | 44 | 343 | 2.0 | 5.0 | 0.00 | 0.10 | 0.00 | 94 | 1011.0 |
| 20260505093603 | 44 | 343 | 1.0 | 3.0 | 0.00 | 0.10 | 0.00 | 93 | 1011.0 |
| 20260505092611 | 45 | 343 | 2.0 | 5.0 | 0.00 | 0.10 | 0.00 | 93 | 1011.0 |
| 20260505091604 | 46 | 344 | 1.0 | 3.0 | 0.00 | 0.10 | 0.00 | 93 | 1011.1 |
| 20260505091103 | 47 | 344 | 3.0 | 6.0 | 0.00 | 0.10 | 0.00 | 93 | 1011.2 |
| 20260505090604 | 48 | 327 | 2.0 | 5.0 | 0.00 | 0.10 | 0.00 | 95 | 1011.0 |
| 20260505085103 | 48 | 327 | 0.0 | 1.0 | 0.00 | 0.10 | 0.00 | 95 | 1010.9 |
| 20260505084603 | 48 | 327 | 0.0 | 0.0 | 0.00 | 0.10 | 0.00 | 95 | 1011.0 |
| 20260505084103 | 48 | 327 | 0.0 | 1.0 | 0.00 | 0.10 | 0.00 | 95 | 1011.0 |
| 20260505083603 | 48 | 327 | 0.0 | 2.0 | 0.00 | 0.10 | 0.00 | 95 | 1011.1 |
| 20260505083103 | 48 | 327 | 0.0 | 0.0 | 0.00 | 0.10 | 0.00 | 95 | 1011.1 |
| 20260505082603 | 48 | 327 | 0.0 | 0.0 | 0.00 | 0.10 | 0.00 | 95 | 1011.1 |
| 20260505082103 | 48 | 327 | 0.0 | 0.0 | 0.00 | 0.10 | 0.00 | 95 | 1011.0 |
| 20260505081603 | 48 | 327 | 0.0 | 0.0 | 0.00 | 0.10 | 0.00 | 95 | 1011.1 |
| 20260505081103 | 48 | 327 | 0.0 | 0.0 | 0.00 | 0.10 | 0.00 | 95 | 1011.1 |
| 20260505080603 | 48 | 327 | 0.0 | 0.0 | 0.00 | 0.10 | 0.00 | 95 | 1011.1 |
| 20260505080103 | 48 | 327 | 0.0 | 0.0 | 0.00 | 0.10 | 0.00 | 95 | 1011.0 |
| 20260505075603 | 48 | 327 | 0.0 | 0.0 | 0.00 | 0.10 | 0.00 | 95 | 1011.0 |
| 20260505075103 | 48 | 327 | 0.0 | 0.0 | 0.00 | 0.10 | 0.00 | 95 | 1011.0 |
| 20260505074603 | 48 | 327 | 0.0 | 0.0 | 0.00 | 0.10 | 0.00 | 95 | 1011.1 |
| 20260505073603 | 48 | 327 | 0.0 | 0.0 | 0.00 | 0.10 | 0.00 | 95 | 1011.3 |
| 20260505072103 | 48 | 327 | 0.0 | 0.0 | 0.00 | 0.10 | 0.00 | 94 | 1011.3 |
| 20260505071604 | 48 | 327 | 0.0 | 0.0 | 0.00 | 0.10 | 0.00 | 94 | 1011.3 |
| 20260505071104 | 48 | 327 | 0.0 | 0.0 | 0.00 | 0.10 | 0.00 | 94 | 1011.3 |
| 20260505070604 | 48 | 327 | 0.0 | 0.0 | 0.00 | 0.10 | 0.00 | 94 | 1011.5 |
| 20260505070104 | 48 | 327 | 0.0 | 0.0 | 0.00 | 0.10 | 0.00 | 94 | 1011.5 |
| 20260505065603 | 48 | 327 | 0.0 | 0.0 | 0.00 | 0.10 | 0.00 | 94 | 1011.5 |
| 20260505065104 | 48 | 327 | 0.0 | 0.0 | 0.00 | 0.10 | 0.00 | 94 | 1011.5 |
| 20260505064604 | 48 | 327 | 0.0 | 0.0 | 0.00 | 0.10 | 0.00 | 94 | 1011.4 |
| 20260505064104 | 48 | 327 | 0.0 | 0.0 | 0.00 | 0.10 | 0.00 | 94 | 1011.3 |
| 20260505063604 | 48 | 327 | 0.0 | 0.0 | 0.00 | 0.10 | 0.00 | 94 | 1011.3 |
| 20260505063104 | 48 | 327 | 0.0 | 0.0 | 0.00 | 0.10 | 0.00 | 94 | 1011.3 |
| 20260505062603 | 48 | 327 | 0.0 | 0.0 | 0.00 | 0.10 | 0.00 | 94 | 1011.4 |
| 20260505062104 | 48 | 327 | 0.0 | 0.0 | 0.01 | 0.10 | 0.00 | 94 | 1011.4 |
| 20260505061604 | 48 | 327 | 0.0 | 0.0 | 0.01 | 0.10 | 0.00 | 94 | 1011.3 |
| 20260505061104 | 48 | 327 | 0.0 | 0.0 | 0.01 | 0.10 | 0.00 | 94 | 1011.4 |
| 20260505060603 | 48 | 327 | 0.0 | 0.0 | 0.01 | 0.10 | 0.00 | 94 | 1011.3 |
| 20260505060104 | 48 | 327 | 0.0 | 0.0 | 0.01 | 0.10 | 0.00 | 94 | 1011.3 |
| 20260505055604 | 48 | 327 | 0.0 | 0.0 | 0.01 | 0.10 | 0.10 | 93 | 1011.3 |
| 20260505055104 | 48 | 327 | 0.0 | 0.0 | 0.01 | 0.10 | 0.10 | 93 | 1011.7 |
| 20260505054604 | 48 | 327 | 0.0 | 0.0 | 0.01 | 0.10 | 0.10 | 93 | 1011.5 |
| 20260505054104 | 48 | 327 | 0.0 | 0.0 | 0.02 | 0.10 | 0.10 | 93 | 1011.5 |
| 20260505053604 | 48 | 327 | 0.0 | 0.0 | 0.02 | 0.10 | 0.10 | 93 | 1011.3 |
| 20260505053104 | 48 | 327 | 0.0 | 0.0 | 0.02 | 0.10 | 0.10 | 93 | 1011.5 |
| 20260505052103 | 48 | 327 | 0.0 | 0.0 | 0.01 | 0.09 | 0.09 | 93 | 1011.5 |
| 20260505051604 | 48 | 327 | 0.0 | 0.0 | 0.02 | 0.09 | 0.09 | 92 | 1011.6 |
| 20260505050603 | 49 | 327 | 0.0 | 0.0 | 0.03 | 0.09 | 0.09 | 93 | 1011.6 |
| 20260505050104 | 49 | 327 | 0.0 | 0.0 | 0.03 | 0.09 | 0.09 | 93 | 1011.5 |
| 20260505041603 | 49 | 327 | 0.0 | 0.0 | 0.07 | 0.07 | 0.07 | 89 | 1011.8 |
| 20260505041103 | 49 | 327 | 0.0 | 0.0 | 0.07 | 0.07 | 0.07 | 89 | 1011.8 |
| 20260505040604 | 49 | 327 | 0.0 | 2.0 | 0.06 | 0.06 | 0.06 | 88 | 1011.8 |
| 20260505040103 | 49 | 327 | 0.0 | 2.0 | 0.06 | 0.06 | 0.06 | 88 | 1011.8 |
| 20260505035603 | 49 | 327 | 0.0 | 2.0 | 0.06 | 0.06 | 0.06 | 87 | 1011.7 |
| 20260505035103 | 50 | 327 | 0.0 | 1.0 | 0.06 | 0.06 | 0.06 | 86 | 1012.0 |
| 20260505034603 | 50 | 327 | 2.0 | 5.0 | 0.05 | 0.05 | 0.05 | 84 | 1012.1 |
| 20260505034103 | 51 | 327 | 0.0 | 6.0 | 0.05 | 0.05 | 0.05 | 82 | 1012.0 |
| 20260505033603 | 52 | 327 | 1.0 | 5.0 | 0.04 | 0.04 | 0.04 | 80 | 1012.1 |
| 20260505033104 | 53 | 328 | 1.0 | 5.0 | 0.02 | 0.02 | 0.02 | 77 | 1012.0 |
| 20260505032603 | 53 | 284 | 2.0 | 7.0 | 0.00 | 0.00 | 0.00 | 73 | 1011.8 |
| 20260505032104 | 54 | 341 | 1.0 | 3.0 | 0.00 | 0.00 | 0.00 | 68 | 1011.3 |
| 20260505031103 | 54 | 341 | 0.0 | 3.0 | 0.00 | 0.00 | 0.00 | 66 | 1011.0 |
| 20260505030603 | 54 | 341 | 0.0 | 3.0 | 0.00 | 0.00 | 0.00 | 66 | 1011.0 |
| 20260505030104 | 54 | 341 | 1.0 | 5.0 | 0.00 | 0.00 | 0.00 | 65 | 1011.0 |
| 20260505025603 | 54 | 342 | 0.0 | 2.0 | 0.00 | 0.00 | 0.00 | 66 | 1010.9 |
| 20260505025103 | 54 | 342 | 1.0 | 3.0 | 0.00 | 0.00 | 0.00 | 65 | 1010.8 |
| 20260505024603 | 54 | 342 | 1.0 | 3.0 | 0.00 | 0.00 | 0.00 | 65 | 1010.6 |
| 20260505024103 | 55 | 341 | 1.0 | 3.0 | 0.00 | 0.00 | 0.00 | 64 | 1010.7 |
| 20260505023603 | 55 | 339 | 0.0 | 3.0 | 0.00 | 0.00 | 0.00 | 64 | 1010.5 |
| 20260505023103 | 55 | 339 | 1.0 | 6.0 | 0.00 | 0.00 | 0.00 | 63 | 1010.5 |
| 20260505022603 | 55 | 340 | 2.0 | 10.0 | 0.00 | 0.00 | 0.00 | 62 | 1010.4 |
| 20260505022103 | 56 | 26 | 3.0 | 10.0 | 0.00 | 0.00 | 0.00 | 61 | 1010.4 |
| 20260505021604 | 55 | 212 | 0.0 | 0.0 | 0.00 | 0.00 | 0.00 | 62 | 1010.0 |
| 20260505021103 | 55 | 212 | 0.0 | 0.0 | 0.00 | 0.00 | 0.00 | 63 | 1010.1 |
| 20260505020603 | 55 | 212 | 0.0 | 0.0 | 0.00 | 0.00 | 0.00 | 63 | 1010.1 |
| 20260505020104 | 55 | 212 | 0.0 | 0.0 | 0.00 | 0.00 | 0.00 | 63 | 1009.8 |
| 20260505015603 | 55 | 212 | 0.0 | 0.0 | 0.00 | 0.00 | 0.00 | 63 | 1009.8 |
| 20260505015103 | 55 | 212 | 0.0 | 0.0 | 0.00 | 0.00 | 0.00 | 63 | 1010.1 |
| 20260505014103 | 56 | 212 | 0.0 | 0.0 | 0.00 | 0.00 | 0.00 | 63 | 1009.9 |
| 20260505013603 | 56 | 212 | 0.0 | 0.0 | 0.00 | 0.00 | 0.00 | 63 | 1009.8 |
| 20260505013103 | 56 | 212 | 0.0 | 0.0 | 0.00 | 0.00 | 0.00 | 63 | 1009.8 |
| 20260505012103 | 56 | 212 | 0.0 | 0.0 | 0.00 | 0.00 | 0.00 | 63 | 1010.0 |
| 20260505011603 | 57 | 212 | 0.0 | 0.0 | 0.00 | 0.00 | 0.00 | 62 | 1010.0 |
| 20260505011104 | 57 | 212 | 0.0 | 0.0 | 0.00 | 0.00 | 0.00 | 60 | 1010.0 |
| 20260505010603 | 58 | 212 | 0.0 | 0.0 | 0.00 | 0.00 | 0.00 | 60 | 1010.0 |
| 20260505010104 | 59 | 212 | 0.0 | 2.0 | 0.00 | 0.00 | 0.00 | 58 | 1010.1 |
| 20260505005604 | 59 | 212 | 0.0 | 3.0 | 0.00 | 0.00 | 0.00 | 52 | 1010.2 |
| 20260505004603 | 61 | 212 | 0.0 | 5.0 | 0.00 | 0.00 | 0.00 | 47 | 1010.3 |
| 20260505004103 | 61 | 313 | 1.0 | 3.0 | 0.00 | 0.00 | 0.00 | 45 | 1009.9 |
| 20260505003604 | 61 | 317 | 0.0 | 2.0 | 0.00 | 0.00 | 0.00 | 43 | 1009.8 |
| 20260505003103 | 61 | 332 | 0.0 | 3.0 | 0.00 | 0.00 | 0.00 | 43 | 1009.8 |
| 20260505002604 | 62 | 332 | 1.0 | 3.0 | 0.00 | 0.00 | 0.00 | 42 | 1009.8 |
| 20260505000603 | 63 | 38 | 1.0 | 10.0 | 0.00 | 0.00 | 0.00 | 38 | 1008.8 |
| 20260505000103 | 63 | 33 | 1.0 | 5.0 | 0.00 | 0.00 | 0.00 | 38 | 1008.8 |
| 20260504235603 | 63 | 37 | 1.0 | 5.0 | 0.00 | 0.00 | 0.00 | 38 | 1008.7 |
| 20260504235103 | 63 | 321 | 1.0 | 8.0 | 0.00 | 0.00 | 0.00 | 38 | 1008.7 |
| 20260504234603 | 63 | 5 | 3.0 | 6.0 | 0.00 | 0.00 | 0.00 | 37 | 1008.7 |
| 20260504234103 | 64 | 322 | 2.0 | 5.0 | 0.00 | 0.00 | 0.00 | 38 | 1008.9 |
| 20260504233603 | 64 | 322 | 1.0 | 12.0 | 0.00 | 0.00 | 0.00 | 37 | 1008.7 |
| 20260504233103 | 64 | 58 | 1.0 | 6.0 | 0.00 | 0.00 | 0.00 | 37 | 1008.7 |
| 20260504232603 | 64 | 347 | 3.0 | 6.0 | 0.00 | 0.00 | 0.00 | 37 | 1008.5 |
| 20260504232103 | 64 | 348 | 3.0 | 6.0 | 0.00 | 0.00 | 0.00 | 36 | 1008.5 |
| 20260504231604 | 64 | 353 | 3.0 | 10.0 | 0.00 | 0.00 | 0.00 | 36 | 1008.5 |
| 20260504231104 | 64 | 336 | 3.0 | 10.0 | 0.00 | 0.00 | 0.00 | 36 | 1008.4 |
| 20260504230603 | 64 | 10 | 3.0 | 13.0 | 0.00 | 0.00 | 0.00 | 36 | 1008.2 |
| 20260504225604 | 64 | 348 | 1.0 | 12.0 | 0.00 | 0.00 | 0.00 | 36 | 1008.2 |
| 20260504224603 | 64 | 17 | 1.0 | 5.0 | 0.00 | 0.00 | 0.00 | 36 | 1008.3 |